Temp
-0 -3 -5 -5 -4 -3 -3 -3 -2 -1 -1 -2 -1 -0 1 2 2 2 2 2 2 2 2 2 2 3 3 4 5 5 5 6 5 5 6 5 6 5 5 5 5 4 4 4
-2 -5 -4 -4 -3 -3 -3 -3 -3 -2 -3 -2 -1 -0 1 2 2 3 3 2 2 2 2 2 2 2 3 3 3 4 4 5 5 5 5 5 5 5 5 4 4 4 4 4
-5 -4 -4 -4 -4 -5 -4 -5 -5 -4 -2 -2 -1 1 1 1 2 2 3 3 2 2 3 2 2 2 2 2 2 4 4 4 4 4 4 5 4 4 4 5 4 5 4 4
-4 -4 -5 -5 -5 -5 -5 -5 -5 -4 -4 -4 -3 -5 0 1 1 1 1 1 1 1 1 1 2 2 2 1 1 2 3 3 4 3 3 4 4 4 4 5 5 4 4 4
-4 -4 -3 -4 -5 -5 -5 -5 -5 -6 -6 -6 -3 -5 -1 -1 -0 -0 -1 -0 0 0 0 0 1 1 1 1 2 1 2 3 3 3 3 3 3 3 4 4 4 4 4 4
-4 -4 -3 -4 -4 -5 -6 -6 -5 -6 -5 -8 -3 -3 -1 -1 -1 -0 -0 -0 -1 -0 0 0 1 1 1 0 1 1 2 2 3 3 3 3 4 3 3 4 4 4 4 4
-3 -4 -4 -4 -4 -5 -6 -5 -6 -7 -6 -9 -3 -4 -1 -2 -2 -1 -1 -1 -1 -0 -0 -0 -0 -0 1 1 1 1 1 2 2 3 3 4 3 2 3 3 3 3 4 4
-6 -4 -5 -5 -5 -6 -6 -6 -6 -6 -7 -6 -3 -2 -2 -2 -2 -2 -3 -2 -2 -2 -1 -1 -0 -0 -0 -0 0 0 0 1 1 2 3 3 3 2 3 2 3 3 4 3
-7 -5 -5 -5 -5 -6 -5 -5 -6 -6 -5 -6 -4 -2 -2 -2 -2 -2 -2 -3 -2 -3 -2 -1 -0 -1 -0 -0 -0 0 1 1 1 2 2 3 3 2 3 3 3 2 3 2
-7 -7 -4 -5 -5 -5 -5 -6 -6 -6 -10 -8 -4 -3 -3 -2 -3 -3 -3 -4 -4 -3 -2 -2 -1 -1 -1 -1 -0 -0 1 2 1 1 2 3 3 2 2 2 2 3 2 2
-7 -7 -4 -5 -5 -5 -5 -6 -6 -6 -5 -7 -10 -5 -6 -6 -5 -5 -5 -5 -5 -4 -3 -2 -2 -2 -1 -1 -0 -0 -0 1 1 1 2 2 2 2 2 1 2 2 2 2
-6 -7 -6 -5 -5 -5 -6 -6 -6 -6 -5 -5 -6 -6 -7 -6 -5 -5 -6 -7 -6 -6 -5 -4 -3 -3 -3 -2 -1 -0 -1 0 1 1 1 1 2 2 2 1 2 1 1 1
-6 -7 -7 -4 -5 -6 -6 -6 -6 -6 -6 -5 -6 -5 -6 -6 -5 -6 -6 -6 -6 -5 -6 -6 -5 -3 -3 -2 -1 -0 -1 -0 0 1 1 1 2 1 2 2 2 1 0 1
-5 -6 -7 -7 -6 -6 -6 -7 -7 -7 -7 -6 -6 -6 -6 -5 -5 -6 -6 -6 -6 -6 -6 -7 -5 -4 -3 -2 -3 -0 -0 -0 -0 0 0 0 1 1 1 1 2 1 1 1
-5 -5 -7 -6 -6 -6 -6 -6 -7 -7 -7 -7 -6 -6 -7 -7 -6 -7 -7 -6 -6 -6 -6 -6 -6 -6 -4 -3 -2 -2 -0 -0 -0 -1 -0 1 0 1 0 0 2 2 2 1
-6 -6 -6 -5 -5 -6 -6 -6 -7 -6 -6 -7 -7 -7 -7 -7 -7 -6 -6 -6 -6 -7 -6 -6 -6 -6 -5 -3 -2 -2 -1 -2 0 -1 -0 -1 -0 -0 0 1 1 1 1 1
-5 -5 -6 -6 -6 -6 -5 -5 -5 -5 -6 -6 -6 -7 -7 -7 -6 -6 -7 -7 -8 -7 -6 -7 -7 -7 -6 -5 -4 -3 -1 -1 -1 -1 -1 0 0 -0 0 0 -0 1 1 1
-5 -6 -7 -7 -6 -8 -4 -4 -5 -5 -5 -5 -5 -6 -6 -5 -5 -6 -6 -6 -6 -6 -6 -6 -6 -6 -5 -5 -5 -6 -5 -3 -3 -2 -2 -1 -1 -0 -0 -1 -0 -0 0 0
-4 -6 -7 -7 -7 -5 -4 -4 -4 -5 -5 -5 -5 -5 -5 -5 -5 -5 -6 -6 -6 -5 -6 -6 -6 -5 -6 -5 -5 -5 -5 -5 -4 -5 -4 -4 -3 -3 -3 -2 -2 -1 -1 -1
-4 -5 -6 -7 -6 -8 -4 -4 -4 -4 -4 -5 -5 -5 -5 -5 -5 -5 -5 -6 -6 -6 -6 -6 -6 -5 -5 -5 -5 -5 -5 -4 -4 -4 -3 -3 -3 -3 -2 -2 -1 -1 -1 -1
-4 -4 -5 -7 -7 -5 -3 -4 -4 -5 -3 -4 -4 -5 -5 -5 -5 -5 -5 -5 -5 -5 -5 -5 -5 -5 -5 -5 -5 -5 -5 -4 -4 -4 -4 -4 -3 -3 -3 -3 -3 -3 -2 -2
-3 -3 -4 -6 -8 -5 -2 -3 -3 -3 -3 -3 -3 -4 -4 -4 -4 -4 -5 -5 -5 -5 -5 -5 -5 -5 -5 -5 -5 -5 -5 -5 -4 -4 -4 -4 -3 -3 -3 -3 -3 -3 -3 -3
-3 -2 -2 -3 -2 -2 -2 -2 -3 -2 -3 -3 -3 -3 -4 -4 -4 -4 -4 -4 -4 -4 -4 -4 -4 -4 -5 -5 -5 -5 -5 -5 -4 -4 -4 -4 -3 -3 -3 -3 -3 -2 -2 -2
-2 -2 -2 -2 -1 -1 -2 -2 -2 -2 -2 -2 -3 -3 -3 -3 -3 -3 -3 -3 -3 -4 -4 -4 -4 -4 -5 -5 -5 -5 -5 -5 -5 -4 -4 -4 -3 -3 -3 -2 -2 -2 -2 -2
-2 -2 -1 -1 -1 -1 -2 -2 -2 -2 -2 -2 -2 -3 -3 -3 -3 -3 -3 -3 -3 -4 -4 -4 -4 -4 -4 -5 -5 -5 -5 -5 -5 -5 -4 -4 -4 -3 -3 -3 -3 -2 -2 -2
1 0 -0 1 -1 -1 -1 -1 -1 -1 -2 -2 -2 -2 -3 -3 -3 -3 -4 -4 -4 -4 -4 -4 -4 -4 -4 -4 -5 -5 -5 -5 -4 -4 -4 -4 -4 -3 -3 -3 -3 -3 -3 -3
Height
3086 3087 3087 3087 3088 3089 3089 3089 3088 3088 3089 3084 3084 3083 3084 3085 3085 3087 3089 3093 3095 3099 3104 3106 3111 3114 3117 3119 3123 3126 3128 3130 3131 3134 3137 3141 3143 3146 3150 3154 3157 3158 3160 3162
3087 3086 3088 3088 3087 3087 3087 3086 3086 3084 3084 3082 3079 3075 3077 3078 3079 3082 3086 3089 3092 3095 3099 3102 3104 3107 3110 3113 3118 3120 3123 3124 3127 3129 3131 3136 3139 3141 3145 3148 3151 3154 3155 3155
3087 3089 3089 3087 3087 3087 3086 3086 3086 3086 3082 3079 3074 3071 3073 3075 3076 3077 3080 3083 3087 3090 3093 3098 3098 3100 3105 3106 3110 3115 3118 3120 3121 3124 3125 3129 3132 3134 3137 3141 3143 3146 3150 3151
3091 3090 3089 3088 3087 3087 3087 3085 3085 3084 3082 3079 3077 3075 3074 3075 3077 3078 3079 3082 3084 3086 3088 3092 3093 3093 3095 3100 3103 3105 3109 3112 3114 3117 3117 3121 3125 3128 3133 3135 3139 3142 3144 3146
3094 3091 3089 3089 3088 3087 3087 3085 3083 3082 3082 3080 3075 3078 3076 3075 3075 3075 3076 3076 3076 3077 3078 3081 3086 3088 3089 3091 3094 3096 3100 3104 3107 3107 3110 3112 3115 3121 3125 3127 3131 3134 3137 3139
3094 3092 3092 3090 3089 3086 3085 3083 3080 3080 3080 3081 3077 3079 3075 3074 3074 3075 3076 3076 3075 3074 3073 3073 3074 3077 3079 3083 3085 3088 3089 3093 3098 3102 3104 3106 3110 3113 3117 3120 3123 3127 3129 3131
3095 3093 3093 3092 3089 3086 3084 3083 3081 3083 3081 3082 3077 3078 3073 3073 3072 3072 3071 3071 3072 3070 3069 3068 3068 3069 3071 3071 3072 3077 3081 3083 3088 3093 3096 3100 3104 3106 3108 3113 3115 3118 3122 3124
3096 3095 3093 3092 3091 3088 3085 3085 3085 3087 3084 3078 3074 3073 3072 3072 3071 3070 3069 3067 3064 3062 3060 3060 3061 3061 3063 3065 3065 3068 3071 3074 3079 3083 3089 3094 3097 3100 3101 3104 3109 3111 3114 3118
3099 3096 3094 3093 3091 3089 3086 3086 3086 3085 3082 3080 3073 3072 3070 3071 3070 3068 3063 3058 3054 3049 3048 3047 3050 3050 3052 3054 3057 3058 3062 3066 3071 3076 3081 3086 3090 3092 3094 3097 3099 3104 3107 3109
3101 3097 3094 3093 3091 3089 3087 3087 3087 3085 3088 3085 3072 3071 3069 3067 3065 3061 3053 3046 3041 3038 3035 3034 3034 3037 3040 3042 3046 3050 3055 3059 3064 3069 3072 3077 3082 3086 3086 3090 3092 3095 3099 3101
3100 3101 3097 3094 3092 3090 3088 3087 3087 3086 3085 3084 3084 3073 3070 3067 3063 3056 3050 3043 3035 3029 3026 3023 3023 3024 3028 3033 3037 3043 3048 3052 3056 3061 3065 3069 3073 3078 3081 3081 3084 3087 3089 3089
3098 3099 3095 3093 3092 3090 3088 3088 3087 3086 3083 3081 3080 3074 3070 3066 3060 3053 3046 3038 3030 3023 3020 3016 3014 3017 3019 3022 3027 3036 3041 3046 3049 3054 3058 3061 3066 3069 3072 3075 3077 3080 3081 3082
3098 3097 3096 3092 3094 3091 3089 3087 3086 3083 3080 3078 3079 3073 3069 3066 3062 3054 3045 3037 3029 3022 3015 3011 3011 3011 3013 3015 3019 3027 3035 3040 3045 3048 3051 3054 3056 3060 3063 3067 3070 3071 3067 3074
3096 3096 3097 3096 3094 3091 3089 3086 3083 3081 3079 3076 3075 3072 3068 3064 3059 3054 3047 3039 3033 3027 3021 3015 3010 3009 3011 3012 3017 3021 3029 3035 3039 3042 3045 3047 3050 3053 3056 3059 3062 3064 3066 3067
3095 3093 3092 3091 3088 3086 3085 3085 3082 3079 3077 3076 3073 3071 3067 3063 3059 3055 3049 3043 3038 3033 3026 3022 3017 3011 3010 3011 3015 3020 3023 3030 3034 3037 3040 3041 3044 3047 3050 3052 3054 3056 3059 3059
3093 3091 3089 3087 3086 3085 3083 3082 3080 3077 3075 3074 3073 3070 3068 3065 3061 3058 3052 3048 3043 3039 3032 3025 3024 3016 3008 3010 3013 3019 3022 3026 3029 3032 3034 3036 3038 3041 3044 3043 3047 3049 3050 3052
3091 3090 3089 3087 3086 3083 3082 3079 3078 3076 3074 3073 3071 3070 3069 3066 3063 3060 3057 3053 3049 3045 3039 3033 3027 3020 3016 3011 3014 3015 3019 3022 3023 3026 3029 3031 3032 3034 3037 3037 3039 3040 3040 3041
3089 3088 3088 3087 3085 3085 3080 3078 3077 3076 3074 3073 3072 3071 3070 3068 3064 3060 3059 3058 3054 3049 3044 3040 3035 3031 3026 3021 3019 3017 3020 3021 3020 3022 3020 3024 3025 3027 3029 3030 3031 3029 3029 3028
3088 3087 3087 3088 3086 3082 3077 3077 3077 3075 3074 3072 3071 3070 3068 3067 3065 3063 3061 3059 3056 3053 3049 3045 3040 3037 3034 3032 3031 3029 3028 3027 3028 3027 3024 3024 3025 3026 3026 3027 3027 3026 3024 3024
3085 3085 3086 3086 3086 3081 3075 3075 3075 3074 3073 3071 3071 3070 3069 3067 3065 3064 3062 3059 3057 3054 3051 3047 3044 3042 3041 3038 3037 3036 3035 3034 3031 3029 3028 3028 3027 3027 3026 3026 3024 3023 3021 3019
3081 3081 3080 3081 3082 3074 3073 3073 3073 3075 3076 3070 3070 3069 3068 3067 3067 3064 3062 3059 3057 3055 3053 3051 3048 3047 3044 3042 3041 3040 3038 3036 3032 3031 3030 3029 3028 3026 3025 3023 3022 3020 3017 3015
3077 3077 3077 3076 3077 3072 3071 3071 3072 3071 3069 3070 3069 3068 3067 3066 3065 3065 3062 3060 3059 3056 3055 3053 3051 3048 3046 3044 3043 3041 3039 3036 3033 3032 3031 3029 3028 3026 3025 3024 3021 3020 3018 3015
3072 3072 3073 3072 3069 3068 3068 3068 3068 3067 3067 3067 3067 3066 3066 3065 3064 3063 3062 3061 3060 3058 3056 3055 3053 3050 3048 3046 3044 3042 3040 3037 3036 3033 3031 3029 3028 3026 3024 3023 3020 3018 3015 3013
3066 3066 3065 3067 3065 3065 3065 3065 3064 3065 3065 3064 3064 3063 3063 3063 3063 3062 3061 3061 3060 3058 3056 3055 3053 3051 3049 3047 3046 3043 3041 3039 3036 3034 3032 3029 3027 3026 3024 3022 3019 3016 3013 3010
3061 3060 3059 3059 3060 3061 3061 3060 3061 3061 3061 3061 3061 3061 3061 3061 3060 3060 3059 3059 3058 3057 3055 3054 3054 3052 3050 3048 3046 3044 3042 3040 3038 3035 3032 3030 3028 3025 3021 3018 3016 3012 3009 3005
3051 3052 3051 3051 3054 3055 3056 3056 3056 3057 3058 3058 3059 3058 3058 3058 3058 3057 3056 3056 3055 3054 3053 3053 3052 3050 3048 3046 3045 3044 3042 3040 3037 3036 3034 3032 3029 3026 3023 3019 3015 3011 3007 3004
Wind_Speed
7 5 7 5 3 6 11 13 17 16 14 22 23 25 23 20 23 27 29 27 23 23 24 26 23 25 27 29 30 28 29 32 31 30 28 32 32 31 29 26 25 25 25 23
10 11 7 5 4 4 5 7 9 8 4 16 20 25 22 20 20 22 25 30 31 30 30 27 25 23 25 29 29 30 29 29 30 33 27 29 30 32 31 29 28 28 29 30
9 5 7 7 8 8 6 8 9 13 17 13 20 17 9 9 8 2 18 21 24 27 27 36 32 28 23 28 31 33 33 35 33 32 36 33 31 33 35 34 34 33 31 32
5 8 9 10 8 6 7 7 9 13 13 7 11 8 14 7 5 4 4 2 5 13 26 24 36 31 27 26 27 36 33 33 35 42 33 42 29 30 29 33 34 34 33 33
9 9 8 10 7 7 8 13 15 13 9 15 8 3 11 6 2 0 2 4 8 12 13 9 33 32 30 32 32 31 38 37 33 31 46 43 45 36 33 32 33 35 36 35
11 9 10 10 13 6 8 14 8 2 5 2 4 2 3 16 15 10 7 7 9 12 16 18 19 32 36 34 38 36 39 40 39 35 34 41 37 37 41 33 35 34 36 37
10 9 13 10 15 9 15 13 4 4 3 5 6 3 4 11 10 15 20 21 19 20 23 23 23 23 29 45 48 45 43 40 37 38 36 33 35 37 33 33 33 32 34 35
13 4 11 14 15 14 10 5 1 3 2 5 19 5 5 6 11 14 14 20 26 32 32 31 32 35 31 33 39 46 40 35 37 36 36 31 35 35 30 34 41 33 32 32
10 5 8 14 16 12 6 2 3 5 5 3 3 3 11 13 15 19 31 32 36 29 37 40 37 35 41 39 39 41 41 37 36 35 36 35 35 42 36 35 35 39 29 25
9 10 7 16 6 10 8 6 1 2 3 4 6 6 8 16 26 38 38 36 33 26 24 29 40 44 36 45 42 39 40 36 32 32 37 39 35 35 35 38 38 37 36 30
12 6 10 11 7 9 12 7 3 5 4 2 2 4 12 22 33 38 40 29 28 29 29 29 25 33 39 34 46 41 33 34 33 33 33 39 36 35 34 30 28 30 36 46
9 6 14 13 4 9 9 7 8 4 2 6 3 6 5 27 32 34 31 27 26 30 25 25 18 20 23 25 34 41 35 33 34 31 31 35 39 35 39 41 37 37 26 25
11 5 10 4 3 7 7 13 15 16 16 13 3 4 13 25 30 24 23 22 24 24 22 15 18 13 15 20 26 38 36 29 30 31 31 29 39 40 38 40 39 38 34 32
11 9 6 10 15 19 16 14 20 18 5 8 11 20 21 24 20 18 17 17 19 22 19 9 2 9 12 13 17 29 36 31 26 26 24 30 36 38 40 37 40 46 44 39
12 9 11 17 18 18 15 15 20 18 5 6 7 10 13 14 12 15 16 17 20 21 24 21 23 24 23 19 18 21 30 31 29 27 20 25 32 31 39 40 42 44 48 49
11 6 16 8 7 6 11 13 11 7 1 0 6 5 8 7 11 16 22 22 29 34 33 34 26 28 32 24 21 22 25 27 29 26 23 30 26 28 38 33 34 38 39 48
9 9 11 5 9 11 8 4 5 7 6 4 2 3 5 10 19 28 30 30 27 24 27 30 36 37 37 32 23 20 19 21 22 24 25 28 23 27 26 26 33 41 44 43
8 10 5 7 8 2 2 4 4 5 4 2 5 10 15 17 15 13 11 12 14 18 22 25 26 28 29 30 30 32 25 16 13 10 11 20 19 19 23 26 33 28 36 40
7 7 3 2 7 11 11 6 2 4 2 8 6 4 2 4 5 9 11 13 15 16 19 21 24 25 25 25 24 25 22 19 16 16 17 15 11 5 6 8 13 20 28 31
7 8 6 2 3 4 3 3 7 7 5 8 2 2 3 4 5 6 8 11 14 16 19 21 22 22 20 20 19 18 17 15 14 16 16 15 13 11 8 6 7 9 11 14
8 9 12 8 7 9 7 7 4 5 5 7 3 2 2 2 2 4 7 10 13 15 17 19 20 19 19 19 17 16 16 14 17 18 18 17 15 15 16 16 16 18 19 19
7 5 5 5 7 6 2 6 8 5 3 4 2 4 5 5 4 6 9 11 13 15 16 17 18 17 18 17 16 15 15 18 18 17 17 17 16 17 16 16 16 16 16 17
8 9 6 8 6 9 12 8 8 8 7 6 6 6 7 6 5 5 8 10 10 11 13 12 13 13 14 14 13 14 16 17 17 17 17 17 18 18 18 18 18 19 18 18
15 14 16 14 4 8 10 11 11 10 10 10 9 9 7 5 3 3 5 6 5 6 7 9 11 13 12 11 12 14 16 16 17 17 17 19 19 20 20 21 22 23 24 24
19 18 20 22 16 15 13 10 11 11 10 9 7 5 5 4 4 3 3 3 3 5 7 8 10 12 12 10 12 13 14 15 15 16 17 18 19 21 23 25 26 27 29 30
22 21 23 17 15 17 13 10 8 7 7 7 6 6 6 6 6 6 5 4 4 5 5 6 8 10 10 10 11 11 12 13 15 16 16 18 20 22 23 25 29 31 32 33
Wind_Direction
3 53 38 21 310 286 282 279 277 261 256 272 266 268 260 245 231 231 229 218 217 220 223 232 244 248 250 249 244 241 245 243 240 238 237 236 239 240 238 241 242 241 246 252
46 60 37 8 9 326 324 326 321 318 279 281 290 282 285 272 256 242 239 230 228 224 220 228 231 235 243 254 251 245 242 244 244 239 241 244 240 243 242 240 242 242 244 248
51 45 355 359 0 357 351 336 325 313 316 313 300 313 90 58 59 276 238 233 238 243 240 226 234 232 240 250 255 246 248 247 244 246 233 235 238 240 240 238 236 239 242 248
31 7 352 352 1 350 317 290 297 313 323 319 324 295 339 359 339 11 357 349 262 255 258 249 224 235 229 241 251 255 244 246 248 241 233 231 239 245 247 247 244 243 244 246
357 342 6 36 15 335 311 307 303 306 307 308 319 252 360 55 88 37 324 226 212 208 223 240 228 233 240 237 241 247 249 243 240 247 239 239 247 248 245 245 244 244 244 244
40 6 23 19 3 338 325 337 333 3 294 289 9 169 35 3 337 329 306 259 268 244 236 229 219 220 233 243 246 244 246 243 238 239 246 242 244 248 247 251 248 246 245 245
22 26 3 4 3 2 357 354 4 7 353 211 71 267 293 316 324 326 318 311 297 269 246 240 240 234 216 229 234 241 245 245 239 235 241 248 249 241 252 263 235 250 248 249
351 355 344 342 347 334 345 0 40 306 334 282 293 234 236 263 301 305 310 307 304 289 276 258 243 238 236 232 234 237 235 245 243 234 234 241 243 237 246 246 233 249 250 252
350 317 325 329 335 331 335 16 292 282 287 300 286 289 278 261 281 302 310 306 307 302 262 266 255 244 236 235 229 237 238 236 246 238 230 229 239 243 240 250 243 247 247 239
355 309 334 342 17 23 3 327 325 288 28 318 309 317 303 310 323 334 335 324 319 310 291 275 258 246 243 238 230 229 237 239 237 244 231 228 234 241 244 247 251 252 246 257
351 311 319 351 336 353 7 19 330 291 262 199 296 311 313 337 341 335 333 328 326 319 304 288 267 248 245 241 234 225 231 235 233 238 242 231 229 235 235 242 244 250 257 260
1 298 310 327 360 22 47 12 335 259 268 229 249 274 304 345 345 338 338 341 337 322 307 286 276 250 236 236 233 225 227 234 235 238 240 238 232 235 235 240 250 256 237 254
351 335 316 339 293 352 349 1 359 336 271 262 253 285 324 332 332 339 349 355 355 348 332 299 276 257 260 236 221 221 224 236 239 238 238 238 237 232 237 239 241 246 257 264
339 322 285 263 285 296 298 321 332 333 262 292 280 286 301 323 342 353 6 15 19 29 28 18 217 266 218 203 206 216 227 234 235 247 241 237 232 237 241 245 243 244 245 254
339 319 324 312 297 280 264 300 311 318 297 284 300 333 351 359 13 38 45 53 59 58 61 52 62 89 132 160 192 208 220 226 236 243 242 254 242 245 244 245 236 250 248 249
325 305 321 355 25 332 292 298 313 324 11 152 321 24 20 43 70 72 69 70 54 46 50 62 64 70 86 130 177 210 209 221 230 243 242 242 255 259 242 246 248 251 260 257
301 316 340 313 332 325 300 316 331 359 41 36 88 71 70 87 79 68 55 52 46 37 41 39 38 43 48 72 103 128 184 203 213 228 227 234 237 256 256 251 262 255 261 261
286 307 328 296 339 291 296 309 307 332 0 60 78 98 78 68 68 66 53 40 33 34 37 43 49 51 52 50 46 51 55 67 88 162 182 209 224 234 243 248 247 250 251 247
278 291 300 301 301 293 273 254 278 6 19 132 138 131 101 67 52 37 34 28 35 40 44 45 46 47 49 54 52 54 58 63 67 57 53 50 53 37 359 305 287 279 270 267
239 257 256 208 271 249 250 263 234 288 261 191 167 12 1 18 30 32 13 25 29 34 36 38 43 43 45 50 51 53 56 52 59 62 59 56 56 52 45 11 345 332 319 309
230 260 252 226 244 268 251 256 252 214 209 194 267 316 331 311 343 2 7 22 27 30 32 32 34 34 38 43 47 49 47 50 54 53 50 46 38 34 26 24 13 11 5 355
231 232 243 201 220 279 251 241 217 246 246 228 281 322 320 314 325 349 9 17 22 28 29 27 24 25 33 35 41 41 36 41 44 44 42 38 35 32 27 19 14 3 356 351
235 226 239 230 252 276 296 287 267 265 271 281 291 308 317 320 325 345 5 14 20 26 25 26 28 31 33 33 37 41 40 38 37 35 33 35 32 25 20 13 8 2 358 353
243 251 252 268 276 296 276 263 259 261 269 285 295 304 311 307 313 350 6 14 16 24 21 19 21 25 31 34 36 34 36 34 33 34 30 25 21 18 15 13 10 8 6 2
257 255 264 271 275 285 285 270 253 258 260 262 268 279 292 298 301 323 337 349 347 351 2 10 14 21 23 29 33 31 31 28 29 30 28 25 20 14 9 7 6 4 359 355
270 272 263 274 270 255 258 262 257 246 241 243 252 262 274 282 276 278 286 301 312 326 348 2 8 10 13 24 30 28 28 30 31 29 26 22 19 16 12 5 358 356 354 352